Tracking 28902 objects as of 19-May-2024
HD Live streaming from Space Station
objects crossing your sky now

STARLINK-3721

Track STARLINK-3721 now!
10-day predictions
STARLINK-3721 is classified as:


NORAD ID: 52134
Int'l Code: 2022-029AY
Perigee: 545.9 km
Apogee: 547.9 km
Inclination: 53.2 °
Period: 95.4 minutes
Semi major axis: 6917 km
RCS: Unknown
Launch date: March 19, 2022
Source: United States (US)
Launch site: AIR FORCE EASTERN TEST RANGE (AFETR)
Your satellite tracking list
Your tracking list is empty




NASA's NSSDC Master Catalog

Two Line Element Set (TLE):
1 52134U 22029AY  24140.25153762 -.00003582  00000-0 -20707-3 0  9991
2 52134  53.2163 149.4492 0001402  92.2714 267.8438 15.08839805121382
Source of the keplerian elements: AFSPC